FIN84G LGRP-EFHK

Flight info

Callsign FIN84G
Flight time 3h 51m
Altitude 34000
Route VANES M601 ADESO UN133 RIGRO DCT ATFIR DCT LOMOS DCT TIXIP DCT KENIN/N0454F350 DCT ETUBO DCT VABER DCT ROLAV DCT DOLAT/N0465F360 DCT ARSAM DCT INTOR
Aircraft A321/M-SDE3FGHIRWY/LB1

Departure

Time 2026-04-26 14:12
Airport Rhodes International Airport "Diagoras" (LGRP)

Arrival

Time 2026-04-26 18:04
Airport Helsinki Vantaa Airport (EFHK)
Time Latitude Longitude Altitude Speed Heading
2026-04-26 13:21 36.40324 28.08977 39 ft 0 kts 160°
2026-04-26 14:04 36.40334 28.08973 38 ft 2 kts 160°
2026-04-26 14:04 36.40348 28.08967 37 ft 2 kts 160°
2026-04-26 14:04 36.40362 28.08961 37 ft 2 kts 160°
2026-04-26 14:04 36.40374 28.08956 37 ft 0 kts 160°
2026-04-26 14:05 36.40385 28.08949 36 ft 2 kts 136°
2026-04-26 14:05 36.40394 28.08934 36 ft 2 kts 108°
2026-04-26 14:05 36.40396 28.08924 36 ft 1 kts 91°
2026-04-26 14:05 36.40394 28.08940 36 ft 4 kts 94°
2026-04-26 14:06 36.40394 28.08956 36 ft 1 kts 92°
2026-04-26 14:06 36.40396 28.08994 36 ft 5 kts 78°
2026-04-26 14:06 36.40402 28.09016 36 ft 0 kts 70°
2026-04-26 14:08 36.40408 28.09035 36 ft 7 kts 70°
2026-04-26 14:08 36.40434 28.09127 37 ft 12 kts 70°
2026-04-26 14:09 36.40466 28.09232 36 ft 13 kts 69°
2026-04-26 14:09 36.40508 28.09343 35 ft 15 kts 53°
2026-04-26 14:09 36.40590 28.09438 31 ft 17 kts 58°
2026-04-26 14:09 36.40634 28.09578 30 ft 17 kts 70°
2026-04-26 14:10 36.40678 28.09727 28 ft 18 kts 70°
2026-04-26 14:10 36.40722 28.09878 27 ft 18 kts 70°
2026-04-26 14:10 36.40765 28.10027 27 ft 18 kts 70°
2026-04-26 14:10 36.40807 28.10172 28 ft 17 kts 70°
2026-04-26 14:11 36.40911 28.10431 27 ft 17 kts
2026-04-26 14:11 36.41006 28.10348 25 ft 17 kts 301°
2026-04-26 14:11 36.40998 28.10202 25 ft 17 kts 249°
2026-04-26 14:12 36.40907 28.09891 24 ft 69 kts 250°
2026-04-26 14:12 36.40668 28.09078 29 ft 130 kts 250°
2026-04-26 14:12 36.40293 28.07807 33 ft 180 kts 251°
2026-04-26 14:12 36.39859 28.06330 630 ft 178 kts 251°
2026-04-26 14:13 36.39403 28.03425 1863 ft 174 kts 267°
2026-04-26 14:13 36.39343 28.01879 2189 ft 186 kts 268°
2026-04-26 14:13 36.39278 28.00204 2488 ft 201 kts 268°
2026-04-26 14:14 36.39189 27.98408 2792 ft 216 kts 267°
2026-04-26 14:14 36.39077 27.96465 3076 ft 233 kts 266°
2026-04-26 14:14 36.38940 27.94365 3348 ft 253 kts 266°
2026-04-26 14:14 36.38788 27.92114 3705 ft 270 kts 266°
2026-04-26 14:15 36.38628 27.89741 4266 ft 277 kts 265°
2026-04-26 14:15 36.38464 27.87382 4903 ft 281 kts 266°
2026-04-26 14:15 36.38375 27.84926 5526 ft 284 kts 271°
2026-04-26 14:15 36.38390 27.82481 6092 ft 287 kts 272°
2026-04-26 14:16 36.38423 27.80000 6639 ft 291 kts 272°
2026-04-26 14:16 36.38461 27.77471 7187 ft 295 kts 272°
2026-04-26 14:16 36.38493 27.74904 7704 ft 299 kts 273°
2026-04-26 14:16 36.38636 27.72297 8247 ft 303 kts 278°
2026-04-26 14:17 36.38931 27.69718 8773 ft 306 kts 281°
2026-04-26 14:17 36.39263 27.67099 9287 ft 310 kts 281°
2026-04-26 14:17 36.39603 27.64462 9791 ft 312 kts 281°
2026-04-26 14:17 36.39949 27.61767 10241 ft 317 kts 281°
2026-04-26 14:18 36.40299 27.59030 10489 ft 330 kts 281°
2026-04-26 14:18 36.40667 27.56133 10745 ft 343 kts 281°
2026-04-26 14:18 36.41042 27.53171 11004 ft 357 kts 281°
2026-04-26 14:18 36.41434 27.50046 11272 ft 371 kts 281°
2026-04-26 14:19 36.41837 27.46823 11522 ft 383 kts 280°
2026-04-26 14:19 36.42249 27.43508 11762 ft 394 kts 280°
2026-04-26 14:19 36.42674 27.40083 12183 ft 401 kts 280°
2026-04-26 14:19 36.43087 27.36708 12709 ft 401 kts 280°
2026-04-26 14:20 36.43504 27.33276 13194 ft 404 kts 279°
2026-04-26 14:20 36.43930 27.29797 13685 ft 407 kts 279°
2026-04-26 14:20 36.44351 27.26336 14178 ft 409 kts 279°
2026-04-26 14:20 36.44778 27.22827 14671 ft 411 kts 279°
2026-04-26 14:21 36.45206 27.19306 15157 ft 414 kts 279°
2026-04-26 14:21 36.45633 27.15795 15646 ft 417 kts 279°
2026-04-26 14:21 36.46065 27.12226 16135 ft 418 kts 279°
2026-04-26 14:21 36.46495 27.08674 16594 ft 421 kts 280°
2026-04-26 14:22 36.46932 27.05065 17053 ft 423 kts 280°
2026-04-26 14:22 36.47378 27.01415 17513 ft 426 kts 280°
2026-04-26 14:22 36.47820 26.97805 17964 ft 428 kts 280°
2026-04-26 14:22 36.48263 26.94165 18409 ft 429 kts 280°
2026-04-26 14:23 36.48709 26.90484 18837 ft 432 kts 281°
2026-04-26 14:23 36.49155 26.86792 19253 ft 434 kts 281°
2026-04-26 14:23 36.49599 26.83086 19662 ft 436 kts 281°
2026-04-26 14:23 36.50042 26.79362 20054 ft 439 kts 281°
2026-04-26 14:24 36.50483 26.75635 20440 ft 441 kts 281°
2026-04-26 14:24 36.50927 26.71865 20823 ft 443 kts 281°
2026-04-26 14:24 36.51370 26.68080 21199 ft 445 kts 281°
2026-04-26 14:24 36.51815 26.64269 21568 ft 447 kts 281°
2026-04-26 14:25 36.52264 26.60421 21918 ft 449 kts 281°
2026-04-26 14:25 36.52758 26.56584 22248 ft 450 kts 285°
2026-04-26 14:25 36.53904 26.53018 22529 ft 445 kts 304°
2026-04-26 14:25 36.55862 26.50110 22880 ft 437 kts 322°
2026-04-26 14:26 36.58409 26.48064 23206 ft 431 kts 338°
2026-04-26 14:26 36.61137 26.46503 23535 ft 433 kts 339°
2026-04-26 14:26 36.63848 26.44964 23822 ft 435 kts 339°
2026-04-26 14:26 36.66601 26.43387 24126 ft 437 kts 339°
2026-04-26 14:27 36.69414 26.41760 24435 ft 439 kts 338°
2026-04-26 14:27 36.72188 26.40144 24733 ft 440 kts 338°
2026-04-26 14:27 36.74989 26.38505 25021 ft 442 kts 338°
2026-04-26 14:27 36.77785 26.36865 25302 ft 444 kts 338°
2026-04-26 14:28 36.80600 26.35210 25578 ft 445 kts 338°
2026-04-26 14:28 36.83396 26.33563 25847 ft 447 kts 338°
2026-04-26 14:28 36.86209 26.31904 26109 ft 448 kts 338°
2026-04-26 14:28 36.89016 26.30247 26434 ft 447 kts 338°
2026-04-26 14:29 36.91836 26.28578 26805 ft 445 kts 338°
2026-04-26 14:29 36.94607 26.26940 27146 ft 444 kts 338°
2026-04-26 14:29 36.97395 26.25292 27467 ft 443 kts 338°
2026-04-26 14:29 37.00198 26.23620 27789 ft 443 kts 338°
2026-04-26 14:30 37.02963 26.21944 28117 ft 442 kts 337°
2026-04-26 14:30 37.05704 26.20274 28447 ft 441 kts 337°
2026-04-26 14:30 37.08462 26.18590 28780 ft 440 kts 337°
2026-04-26 14:30 37.11190 26.16922 29110 ft 438 kts 337°
2026-04-26 14:31 37.13920 26.15251 29448 ft 437 kts 337°
2026-04-26 14:31 37.16664 26.13571 29791 ft 436 kts 338°
2026-04-26 14:31 37.19368 26.11916 30127 ft 435 kts 338°
2026-04-26 14:31 37.22120 26.10229 30470 ft 433 kts 338°
2026-04-26 14:32 37.24799 26.08585 30802 ft 432 kts 338°
2026-04-26 14:32 37.27491 26.06933 31123 ft 431 kts 338°
2026-04-26 14:32 37.30184 26.05278 31437 ft 430 kts 338°
2026-04-26 14:32 37.32865 26.03628 31748 ft 428 kts 338°
2026-04-26 14:33 37.35549 26.01976 32056 ft 427 kts 338°
2026-04-26 14:33 37.38199 26.00343 32342 ft 426 kts 338°
2026-04-26 14:33 37.40851 25.98709 32592 ft 427 kts 337°
2026-04-26 14:33 37.43528 25.97056 32824 ft 428 kts 337°
2026-04-26 14:34 37.46204 25.95403 33043 ft 428 kts 337°
2026-04-26 14:34 37.48877 25.93747 33261 ft 429 kts 337°
2026-04-26 14:34 37.51535 25.92100 33480 ft 429 kts 337°
2026-04-26 14:34 37.54195 25.90452 33695 ft 428 kts 337°
2026-04-26 14:35 37.56869 25.88794 33899 ft 428 kts 337°
2026-04-26 14:35 37.62320 25.85749 34032 ft 427 kts 341°
2026-04-26 14:36 37.67839 25.82891 34028 ft 426 kts 341°
2026-04-26 14:36 37.73284 25.80066 33987 ft 426 kts 341°
2026-04-26 14:37 37.78775 25.77207 33969 ft 426 kts 341°
2026-04-26 14:37 37.84254 25.74345 33950 ft 426 kts 341°
2026-04-26 14:38 37.89746 25.71471 33942 ft 426 kts 341°
2026-04-26 14:38 37.95217 25.68603 33945 ft 426 kts 341°
2026-04-26 14:39 38.00696 25.65725 33945 ft 426 kts 341°
2026-04-26 14:39 38.06143 25.62860 33947 ft 426 kts 341°
2026-04-26 14:40 38.11646 25.59961 33953 ft 426 kts 341°
2026-04-26 14:40 38.17083 25.57093 33955 ft 427 kts 340°
2026-04-26 14:41 38.22561 25.54199 33954 ft 427 kts 340°
2026-04-26 14:41 38.28030 25.51301 33952 ft 427 kts 340°
2026-04-26 14:42 38.33527 25.48385 33952 ft 426 kts 340°
2026-04-26 14:42 38.38993 25.45481 33952 ft 427 kts 340°
2026-04-26 14:43 38.44447 25.42580 33952 ft 427 kts 340°
2026-04-26 14:43 38.49940 25.39652 33954 ft 427 kts 340°
2026-04-26 14:44 38.55423 25.36725 33957 ft 428 kts 340°
2026-04-26 14:44 38.60876 25.33809 33959 ft 428 kts 339°
2026-04-26 14:45 38.66408 25.30846 33960 ft 428 kts 339°
2026-04-26 14:45 38.71874 25.27914 33962 ft 428 kts 339°
2026-04-26 14:46 38.77369 25.24960 33964 ft 428 kts 339°
2026-04-26 14:46 38.82856 25.22007 33965 ft 428 kts 339°
2026-04-26 14:47 38.88348 25.19046 33966 ft 428 kts 339°
2026-04-26 14:47 38.93806 25.16098 33968 ft 428 kts 338°
2026-04-26 14:48 38.99303 25.13123 33972 ft 428 kts 338°
2026-04-26 14:48 39.04803 25.10142 33974 ft 429 kts 338°
2026-04-26 14:49 39.10272 25.07173 33975 ft 429 kts 338°
2026-04-26 14:49 39.15777 25.04178 33977 ft 428 kts 338°
2026-04-26 14:50 39.21275 25.01183 33979 ft 428 kts 338°
2026-04-26 14:50 39.26756 24.98193 33977 ft 429 kts 338°
2026-04-26 14:51 39.32213 24.95212 33975 ft 429 kts 338°
2026-04-26 14:51 39.37694 24.92211 33973 ft 429 kts 338°
2026-04-26 14:52 39.43214 24.89183 33973 ft 429 kts 338°
2026-04-26 14:52 39.48666 24.86188 33972 ft 429 kts 338°
2026-04-26 14:53 39.54153 24.83168 33972 ft 429 kts 337°
2026-04-26 14:53 39.59641 24.80142 33970 ft 429 kts 337°
2026-04-26 14:54 39.65108 24.77123 33969 ft 429 kts 337°
2026-04-26 14:54 39.70615 24.74076 33968 ft 428 kts 337°
2026-04-26 14:55 39.76062 24.71057 33967 ft 428 kts 337°
2026-04-26 14:55 39.81532 24.68020 33966 ft 428 kts 337°
2026-04-26 14:56 39.86995 24.64982 33966 ft 428 kts 337°
2026-04-26 14:56 39.92437 24.61950 33966 ft 428 kts 337°
2026-04-26 14:57 39.97900 24.58901 33966 ft 428 kts 336°
2026-04-26 14:57 40.03372 24.55843 33966 ft 428 kts 336°
2026-04-26 14:58 40.08839 24.52778 33967 ft 428 kts 336°
2026-04-26 14:58 40.14276 24.49728 33968 ft 427 kts 336°
2026-04-26 14:59 40.19765 24.46643 33967 ft 427 kts 336°
2026-04-26 14:59 40.25194 24.43583 33968 ft 427 kts 336°
2026-04-26 15:00 40.30635 24.40512 33971 ft 427 kts 336°
2026-04-26 15:00 40.36105 24.37420 33972 ft 427 kts 336°
2026-04-26 15:01 40.41549 24.34339 33972 ft 427 kts 335°
2026-04-26 15:01 40.46971 24.31264 33969 ft 427 kts 335°
2026-04-26 15:02 40.52426 24.28167 33965 ft 427 kts 335°
2026-04-26 15:02 40.57860 24.25075 33962 ft 427 kts 335°
2026-04-26 15:03 40.63323 24.21961 33962 ft 427 kts 335°
2026-04-26 15:03 40.68772 24.18850 33960 ft 427 kts 335°
2026-04-26 15:04 40.74192 24.15749 33959 ft 427 kts 335°
2026-04-26 15:04 40.79639 24.12627 33959 ft 427 kts 335°
2026-04-26 15:05 40.85064 24.09512 33960 ft 427 kts 335°
2026-04-26 15:05 40.90533 24.06366 33961 ft 427 kts 334°
2026-04-26 15:06 40.96008 24.03210 33963 ft 427 kts 334°
2026-04-26 15:06 41.01461 24.00062 33964 ft 427 kts 334°
2026-04-26 15:07 41.09653 23.95320 33960 ft 426 kts 334°
2026-04-26 15:07 41.15048 23.92190 33966 ft 423 kts 334°
2026-04-26 15:08 41.20421 23.89063 33976 ft 422 kts 334°
2026-04-26 15:08 41.25848 23.85896 33855 ft 422 kts 334°
2026-04-26 15:09 41.31221 23.82757 33685 ft 422 kts 334°
2026-04-26 15:09 41.36626 23.79765 33536 ft 423 kts 338°
2026-04-26 15:10 41.41322 23.77781 33397 ft 425 kts 342°
2026-04-26 15:10 41.45209 23.76570 33288 ft 427 kts 346°
2026-04-26 15:10 41.48022 23.75913 33213 ft 428 kts 348°
2026-04-26 15:11 41.53885 23.74681 33099 ft 428 kts 348°
2026-04-26 15:11 41.59737 23.73466 33036 ft 428 kts 348°
2026-04-26 15:12 41.65651 23.72234 33125 ft 428 kts 348°
2026-04-26 15:12 41.68566 23.71625 33259 ft 428 kts 348°
2026-04-26 15:12 41.71533 23.71005 33387 ft 428 kts 348°
2026-04-26 15:13 41.74481 23.70387 33498 ft 428 kts 348°
2026-04-26 15:13 41.77394 23.69777 33512 ft 427 kts 348°
2026-04-26 15:13 41.83304 23.68537 33517 ft 426 kts 348°
2026-04-26 15:14 41.89181 23.67298 33494 ft 426 kts 348°
2026-04-26 15:14 41.95042 23.66059 33542 ft 426 kts 348°
2026-04-26 15:15 42.00905 23.64820 33648 ft 426 kts 348°
2026-04-26 15:15 42.06773 23.63577 33715 ft 426 kts 348°
2026-04-26 15:16 42.12603 23.62342 33765 ft 426 kts 348°
2026-04-26 15:16 42.18462 23.61098 33804 ft 425 kts 348°
2026-04-26 15:17 42.23327 23.60063 33819 ft 425 kts 348°
2026-04-26 15:17 42.30139 23.58611 33868 ft 425 kts 348°
2026-04-26 15:18 42.35999 23.57359 33940 ft 425 kts 348°
2026-04-26 15:18 42.41862 23.56104 33997 ft 425 kts 348°
2026-04-26 15:19 42.47715 23.54849 34047 ft 426 kts 348°
2026-04-26 15:19 42.53620 23.53580 34062 ft 425 kts 348°
2026-04-26 15:20 42.59450 23.52325 34052 ft 426 kts 348°
2026-04-26 15:20 42.65329 23.51056 34044 ft 426 kts 348°
2026-04-26 15:21 42.71215 23.49784 34028 ft 427 kts 348°
2026-04-26 15:21 42.77061 23.48518 34015 ft 427 kts 348°
2026-04-26 15:22 42.82951 23.47241 34025 ft 427 kts 348°
2026-04-26 15:22 42.88789 23.45973 34043 ft 428 kts 348°
2026-04-26 15:23 42.94690 23.44690 34069 ft 428 kts 349°
2026-04-26 15:23 43.00591 23.43403 34065 ft 428 kts 349°
2026-04-26 15:24 43.06455 23.42122 34060 ft 428 kts 349°
2026-04-26 15:24 43.12338 23.40832 34039 ft 428 kts 349°
2026-04-26 15:25 43.17268 23.39751 34014 ft 428 kts 349°
2026-04-26 15:25 43.24143 23.38240 33987 ft 429 kts 349°
2026-04-26 15:26 43.30036 23.36941 33972 ft 429 kts 349°
2026-04-26 15:26 43.35939 23.35638 33967 ft 429 kts 349°
2026-04-26 15:27 43.41861 23.34326 33969 ft 429 kts 348°
2026-04-26 15:27 43.47754 23.33018 33967 ft 430 kts 348°
2026-04-26 15:28 43.53675 23.31702 33964 ft 430 kts 348°
2026-04-26 15:28 43.59576 23.30387 33961 ft 429 kts 348°
2026-04-26 15:29 43.65454 23.29072 33964 ft 430 kts 348°
2026-04-26 15:30 43.77267 23.26420 33990 ft 430 kts 349°
2026-04-26 15:30 43.83195 23.25071 33989 ft 430 kts 347°
2026-04-26 15:31 43.91956 23.22589 33981 ft 429 kts 346°
2026-04-26 15:32 43.99742 23.20316 33971 ft 429 kts 346°
2026-04-26 15:32 44.06550 23.18323 33966 ft 429 kts 346°
2026-04-26 15:33 44.12415 23.16602 33967 ft 428 kts 346°
2026-04-26 15:33 44.18264 23.14883 33966 ft 428 kts 346°
2026-04-26 15:34 44.24114 23.13161 33964 ft 428 kts 346°
2026-04-26 15:34 44.29940 23.11441 33964 ft 429 kts 346°
2026-04-26 15:35 44.35756 23.09722 33965 ft 428 kts 346°
2026-04-26 15:35 44.41600 23.07991 33967 ft 428 kts 346°
2026-04-26 15:36 44.47446 23.06256 33970 ft 428 kts 346°
2026-04-26 15:36 44.53283 23.04520 33973 ft 428 kts 346°
2026-04-26 15:37 44.59097 23.02787 33975 ft 428 kts 346°
2026-04-26 15:37 44.64925 23.01047 33976 ft 428 kts 346°
2026-04-26 15:38 44.70738 22.99307 33977 ft 428 kts 345°
2026-04-26 15:38 44.76572 22.97558 33980 ft 427 kts 345°
2026-04-26 15:39 44.82364 22.95817 33984 ft 428 kts 345°
2026-04-26 15:39 44.87185 22.94365 33987 ft 428 kts 345°
2026-04-26 15:40 44.93982 22.92315 33994 ft 428 kts 345°
2026-04-26 15:40 44.99849 22.90540 34001 ft 432 kts 345°
2026-04-26 15:41 45.05715 22.88762 33995 ft 433 kts 345°
2026-04-26 15:41 45.11624 22.86969 33735 ft 433 kts 345°
2026-04-26 15:42 45.14579 22.86070 33444 ft 433 kts 345°
2026-04-26 15:42 45.17517 22.85176 33219 ft 433 kts 345°
2026-04-26 15:42 45.20480 22.84272 33061 ft 433 kts 345°
2026-04-26 15:42 45.23422 22.83375 32938 ft 433 kts 345°
2026-04-26 15:43 45.26369 22.82475 32804 ft 433 kts 345°
2026-04-26 15:43 45.29333 22.81568 32763 ft 433 kts 345°
2026-04-26 15:44 45.38187 22.78854 32989 ft 433 kts 345°
2026-04-26 15:44 45.44055 22.77050 33266 ft 432 kts 345°
2026-04-26 15:44 45.46965 22.76154 33475 ft 430 kts 345°
2026-04-26 15:45 45.52812 22.74351 33862 ft 431 kts 345°
2026-04-26 15:45 45.55789 22.73431 33939 ft 431 kts 345°
2026-04-26 15:46 45.64560 22.70713 33933 ft 431 kts 345°
2026-04-26 15:46 45.69457 22.69190 33887 ft 431 kts 345°
2026-04-26 15:47 45.79196 22.66149 33715 ft 431 kts 344°
2026-04-26 15:48 45.85055 22.64341 33823 ft 432 kts 345°
2026-04-26 15:48 45.90934 22.62754 33957 ft 432 kts 346°
2026-04-26 15:49 45.96840 22.61176 34076 ft 432 kts 346°
2026-04-26 15:49 46.02739 22.59580 34118 ft 432 kts 346°
2026-04-26 15:50 46.08606 22.57980 34104 ft 431 kts 346°
2026-04-26 15:50 46.14536 22.56356 34093 ft 429 kts 345°
2026-04-26 15:51 46.20372 22.54749 34067 ft 432 kts 345°
2026-04-26 15:51 46.26318 22.53107 33998 ft 433 kts 345°
2026-04-26 15:52 46.32243 22.51470 33990 ft 433 kts 345°
2026-04-26 15:52 46.38183 22.49826 34043 ft 433 kts 345°
2026-04-26 15:53 46.44070 22.48193 34094 ft 433 kts 345°
2026-04-26 15:53 46.49995 22.46544 34119 ft 433 kts 345°
2026-04-26 15:54 46.55907 22.44897 34122 ft 433 kts 345°
2026-04-26 15:54 46.61803 22.43250 34123 ft 432 kts 345°
2026-04-26 15:55 46.67723 22.41593 34123 ft 431 kts 345°
2026-04-26 15:55 46.73601 22.39944 34121 ft 431 kts 345°
2026-04-26 15:56 46.79483 22.38290 34121 ft 430 kts 345°
2026-04-26 15:56 46.85363 22.36631 34123 ft 430 kts 345°
2026-04-26 15:57 46.91225 22.34974 34127 ft 429 kts 344°
2026-04-26 15:57 46.97060 22.33322 34130 ft 428 kts 344°
2026-04-26 15:58 47.02900 22.31666 34133 ft 427 kts 344°
2026-04-26 15:58 47.08772 22.29996 34136 ft 426 kts 344°
2026-04-26 15:59 47.14597 22.28335 34140 ft 425 kts 344°
2026-04-26 15:59 47.20414 22.26674 34140 ft 424 kts 344°
2026-04-26 16:00 47.26188 22.25021 34138 ft 423 kts 343°
2026-04-26 16:00 47.31945 22.23369 34137 ft 422 kts 343°
2026-04-26 16:01 47.37713 22.21710 34135 ft 421 kts 343°
2026-04-26 16:01 47.43475 22.20050 34133 ft 421 kts 343°
2026-04-26 16:02 47.49227 22.18388 34130 ft 420 kts 343°
2026-04-26 16:02 47.54930 22.16736 34128 ft 419 kts 343°
2026-04-26 16:03 47.60656 22.15074 34127 ft 418 kts 343°
2026-04-26 16:03 47.66355 22.13417 34126 ft 418 kts 343°
2026-04-26 16:04 47.72095 22.11743 34126 ft 417 kts 343°
2026-04-26 16:04 47.77793 22.10077 34127 ft 417 kts 343°
2026-04-26 16:05 47.83490 22.08409 34129 ft 417 kts 343°
2026-04-26 16:05 47.89164 22.06743 34132 ft 416 kts 343°
2026-04-26 16:06 47.94863 22.05065 34134 ft 416 kts 343°
2026-04-26 16:06 48.00565 22.03382 34136 ft 416 kts 343°
2026-04-26 16:07 48.06225 22.01707 34138 ft 416 kts 343°
2026-04-26 16:07 48.11911 22.00019 34142 ft 416 kts 343°
2026-04-26 16:08 48.17563 21.98337 34143 ft 416 kts 343°
2026-04-26 16:08 48.23232 21.96645 34285 ft 417 kts 343°
2026-04-26 16:08 48.26097 21.95792 34465 ft 416 kts 343°
2026-04-26 16:09 48.28969 21.95067 34638 ft 418 kts 346°
2026-04-26 16:09 48.31867 21.94554 34790 ft 420 kts 348°
2026-04-26 16:09 48.34794 21.94252 34937 ft 422 kts 351°
2026-04-26 16:09 48.37706 21.94234 35077 ft 428 kts 357°
2026-04-26 16:10 48.40691 21.94772 35170 ft 432 kts
2026-04-26 16:10 48.46638 21.96144 35214 ft 431 kts
2026-04-26 16:11 48.52534 21.97506 35171 ft 430 kts
2026-04-26 16:11 48.58453 21.98849 35147 ft 429 kts
2026-04-26 16:12 48.64375 22.00184 35135 ft 429 kts
2026-04-26 16:12 48.73190 22.02170 35130 ft 428 kts
2026-04-26 16:13 48.79062 22.03496 35128 ft 426 kts
2026-04-26 16:13 48.84920 22.04822 35129 ft 424 kts
2026-04-26 16:14 48.90747 22.06141 35134 ft 422 kts
2026-04-26 16:15 48.99409 22.08105 35133 ft 420 kts
2026-04-26 16:15 49.05166 22.09416 35130 ft 419 kts
2026-04-26 16:16 49.13813 22.11391 35125 ft 417 kts 360°
2026-04-26 16:16 49.19501 22.12693 35067 ft 416 kts 360°
2026-04-26 16:17 49.25205 22.14004 34938 ft 415 kts 359°
2026-04-26 16:17 49.30909 22.15317 34893 ft 414 kts 359°
2026-04-26 16:18 49.39414 22.17280 35002 ft 412 kts 359°
2026-04-26 16:19 49.45039 22.18582 35109 ft 411 kts 359°
2026-04-26 16:19 49.47888 22.19243 35136 ft 410 kts 359°
2026-04-26 16:20 49.56324 22.21203 35159 ft 409 kts 359°
2026-04-26 16:20 49.64732 22.23164 35158 ft 409 kts 359°
2026-04-26 16:21 49.70358 22.24479 35154 ft 409 kts 359°
2026-04-26 16:21 49.75994 22.25802 35156 ft 408 kts 359°
2026-04-26 16:22 49.81585 22.27115 35159 ft 408 kts 359°
2026-04-26 16:22 49.87203 22.28438 35161 ft 408 kts 359°
2026-04-26 16:23 49.92770 22.29754 35163 ft 408 kts 359°
2026-04-26 16:23 49.98394 22.31086 35165 ft 408 kts 359°
2026-04-26 16:24 50.03989 22.32412 35166 ft 408 kts 359°
2026-04-26 16:24 50.09573 22.33738 35165 ft 408 kts 359°
2026-04-26 16:25 50.15156 22.35068 35163 ft 407 kts 359°
2026-04-26 16:25 50.20772 22.36410 35164 ft 406 kts 359°
2026-04-26 16:26 50.26315 22.37738 35167 ft 406 kts 359°
2026-04-26 16:26 50.31871 22.39073 35167 ft 405 kts 359°
2026-04-26 16:27 50.37441 22.40412 35166 ft 405 kts 359°
2026-04-26 16:27 50.42981 22.41748 35165 ft 404 kts 359°
2026-04-26 16:28 50.48523 22.43089 35163 ft 403 kts 359°
2026-04-26 16:28 50.54024 22.44424 35161 ft 403 kts 359°
2026-04-26 16:29 50.59571 22.45773 35157 ft 403 kts 359°
2026-04-26 16:29 50.65089 22.47118 35153 ft 402 kts 359°
2026-04-26 16:30 50.70587 22.48461 35148 ft 401 kts 359°
2026-04-26 16:30 50.76107 22.49813 35144 ft 401 kts 359°
2026-04-26 16:31 50.81570 22.51153 35140 ft 400 kts 359°
2026-04-26 16:31 50.87052 22.52501 35136 ft 399 kts 359°
2026-04-26 16:32 50.91612 22.53625 35133 ft 398 kts 359°
2026-04-26 16:32 50.97962 22.55192 35129 ft 397 kts 359°
2026-04-26 16:33 51.03391 22.56535 35125 ft 396 kts 359°
2026-04-26 16:33 51.08843 22.57888 35122 ft 396 kts 359°
2026-04-26 16:34 51.14247 22.59232 35121 ft 395 kts 359°
2026-04-26 16:34 51.19673 22.60585 35118 ft 394 kts 359°
2026-04-26 16:35 51.25056 22.61931 35117 ft 394 kts 359°
2026-04-26 16:35 51.30459 22.63285 35116 ft 394 kts 359°
2026-04-26 16:36 51.35866 22.64641 35116 ft 393 kts 359°
2026-04-26 16:36 51.41253 22.65998 35115 ft 394 kts 359°
2026-04-26 16:37 51.46640 22.67358 35116 ft 394 kts 359°
2026-04-26 16:37 51.52031 22.68722 35116 ft 393 kts 359°
2026-04-26 16:38 51.57438 22.70093 35116 ft 393 kts 359°
2026-04-26 16:38 51.62816 22.71459 35117 ft 393 kts 359°
2026-04-26 16:39 51.68218 22.72835 35116 ft 393 kts 359°
2026-04-26 16:39 51.73573 22.74202 35115 ft 392 kts 360°
2026-04-26 16:40 51.78972 22.75585 35110 ft 392 kts 360°
2026-04-26 16:40 51.84321 22.76958 35103 ft 392 kts 360°
2026-04-26 16:41 51.89714 22.78346 35097 ft 392 kts 359°
2026-04-26 16:41 51.95092 22.79729 35092 ft 392 kts 359°
2026-04-26 16:42 52.00442 22.81110 35087 ft 392 kts 359°
2026-04-26 16:42 52.05831 22.82506 35073 ft 392 kts 360°
2026-04-26 16:43 52.11203 22.83898 35052 ft 393 kts 360°
2026-04-26 16:43 52.16580 22.85297 35051 ft 392 kts
2026-04-26 16:44 52.21965 22.86704 35061 ft 392 kts
2026-04-26 16:44 52.27330 22.88108 35057 ft 392 kts
2026-04-26 16:45 52.32714 22.89521 35052 ft 393 kts
2026-04-26 16:45 52.38086 22.90934 35047 ft 393 kts
2026-04-26 16:46 52.43481 22.92358 35042 ft 393 kts
2026-04-26 16:46 52.48854 22.93778 35038 ft 393 kts
2026-04-26 16:47 52.54254 22.95208 35037 ft 393 kts
2026-04-26 16:47 52.59626 22.96634 35037 ft 393 kts
2026-04-26 16:48 52.64996 22.98064 35038 ft 394 kts
2026-04-26 16:48 52.70392 22.99505 35038 ft 394 kts
2026-04-26 16:49 52.75798 23.00952 35038 ft 394 kts
2026-04-26 16:49 52.81231 23.02410 35038 ft 395 kts
2026-04-26 16:50 52.86621 23.03859 35038 ft 395 kts
2026-04-26 16:50 52.92060 23.05326 35038 ft 396 kts
2026-04-26 16:51 52.97474 23.06789 35037 ft 396 kts
2026-04-26 16:51 53.02937 23.08269 35036 ft 397 kts
2026-04-26 16:52 53.07480 23.09503 35034 ft 397 kts
2026-04-26 16:52 53.13821 23.11229 35032 ft 397 kts
2026-04-26 16:53 53.19301 23.12726 35027 ft 397 kts
2026-04-26 16:53 53.24746 23.14217 35023 ft 398 kts
2026-04-26 16:54 53.30214 23.15718 35020 ft 398 kts
2026-04-26 16:54 53.35695 23.17226 35016 ft 398 kts
2026-04-26 16:55 53.41188 23.18742 35012 ft 399 kts
2026-04-26 16:55 53.46658 23.20254 35009 ft 399 kts
2026-04-26 16:56 53.54865 23.22535 35004 ft 400 kts
2026-04-26 16:57 53.60371 23.24070 35001 ft 400 kts
2026-04-26 16:57 53.68589 23.26366 35001 ft 401 kts
2026-04-26 16:58 53.73148 23.27644 35004 ft 401 kts
2026-04-26 16:59 53.82308 23.30218 35004 ft 401 kts
2026-04-26 17:00 53.93310 23.33324 35006 ft 402 kts
2026-04-26 17:00 54.01589 23.35670 35009 ft 403 kts
2026-04-26 17:01 54.07092 23.37232 35012 ft 403 kts
2026-04-26 17:01 54.12623 23.38803 35008 ft 403 kts
2026-04-26 17:02 54.18149 23.40381 35000 ft 404 kts
2026-04-26 17:02 54.23701 23.41967 35008 ft 405 kts
2026-04-26 17:03 54.29236 23.43543 35013 ft 405 kts
2026-04-26 17:03 54.34783 23.45120 35009 ft 405 kts
2026-04-26 17:04 54.40331 23.46698 35009 ft 405 kts
2026-04-26 17:04 54.45859 23.48272 35009 ft 405 kts
2026-04-26 17:05 54.51436 23.49866 35010 ft 406 kts
2026-04-26 17:05 54.56961 23.51448 35011 ft 406 kts
2026-04-26 17:06 54.62551 23.53053 35010 ft 406 kts
2026-04-26 17:06 54.68094 23.54649 35010 ft 406 kts
2026-04-26 17:07 54.73642 23.56250 35009 ft 406 kts
2026-04-26 17:07 54.79223 23.57865 35007 ft 406 kts
2026-04-26 17:08 54.84830 23.59492 35006 ft 406 kts
2026-04-26 17:08 54.90373 23.61111 35005 ft 407 kts
2026-04-26 17:09 54.95025 23.62472 35004 ft 407 kts
2026-04-26 17:09 55.01540 23.64381 35002 ft 408 kts
2026-04-26 17:10 55.07097 23.66014 35001 ft 408 kts
2026-04-26 17:10 55.12463 23.67593 35001 ft 409 kts
2026-04-26 17:11 55.18071 23.69249 34996 ft 409 kts
2026-04-26 17:11 55.23712 23.70914 34997 ft 410 kts
2026-04-26 17:12 55.32142 23.73421 34996 ft 411 kts
2026-04-26 17:13 55.40638 23.75950 34991 ft 413 kts
2026-04-26 17:14 55.49157 23.78512 34993 ft 414 kts
2026-04-26 17:14 55.57656 23.81062 34994 ft 414 kts
2026-04-26 17:15 55.66160 23.83625 34996 ft 415 kts
2026-04-26 17:16 55.71846 23.85349 35000 ft 416 kts
2026-04-26 17:16 55.77566 23.87096 35001 ft 417 kts
2026-04-26 17:17 55.83291 23.88848 35001 ft 417 kts
2026-04-26 17:17 55.89043 23.90616 35003 ft 417 kts
2026-04-26 17:18 55.94779 23.92357 35003 ft 418 kts
2026-04-26 17:18 56.00504 23.94120 35003 ft 418 kts
2026-04-26 17:19 56.09081 23.96772 35008 ft 418 kts
2026-04-26 17:19 56.14822 23.98546 35007 ft 418 kts
2026-04-26 17:20 56.19627 24.00033 35003 ft 418 kts
2026-04-26 17:20 56.26299 24.02104 34995 ft 418 kts
2026-04-26 17:21 56.31976 24.04387 34988 ft 422 kts 11°
2026-04-26 17:21 56.37626 24.07363 34977 ft 423 kts 11°
2026-04-26 17:22 56.43251 24.10377 34974 ft 423 kts 11°
2026-04-26 17:22 56.48904 24.13389 34964 ft 423 kts 12°
2026-04-26 17:23 56.54530 24.16420 34956 ft 424 kts 11°
2026-04-26 17:23 56.60161 24.19442 34951 ft 424 kts 12°
2026-04-26 17:24 56.65802 24.22507 34948 ft 425 kts 12°
2026-04-26 17:24 56.71440 24.25579 34946 ft 425 kts 12°
2026-04-26 17:25 56.77114 24.28668 34944 ft 426 kts 12°
2026-04-26 17:25 56.82823 24.31781 34943 ft 427 kts 12°
2026-04-26 17:26 56.88538 24.34906 34942 ft 427 kts 12°
2026-04-26 17:26 56.94198 24.38010 34942 ft 428 kts 12°
2026-04-26 17:27 56.99897 24.41145 34944 ft 428 kts 12°
2026-04-26 17:27 57.05622 24.44303 34947 ft 429 kts 12°
2026-04-26 17:28 57.11321 24.47458 34951 ft 429 kts 12°
2026-04-26 17:28 57.17041 24.50634 34953 ft 429 kts 12°
2026-04-26 17:29 57.21786 24.53278 34952 ft 429 kts 12°
2026-04-26 17:29 57.28457 24.57005 34950 ft 430 kts 12°
2026-04-26 17:30 57.34175 24.60211 34948 ft 430 kts 12°
2026-04-26 17:30 57.39870 24.63413 34946 ft 430 kts 12°
2026-04-26 17:31 57.45621 24.66659 34943 ft 431 kts 13°
2026-04-26 17:31 57.51342 24.69898 34940 ft 431 kts 13°
2026-04-26 17:32 57.57106 24.73163 34936 ft 431 kts 13°
2026-04-26 17:32 57.62845 24.76428 34932 ft 431 kts 13°
2026-04-26 17:33 57.68586 24.79707 34927 ft 431 kts 13°
2026-04-26 17:34 57.77157 24.84622 34919 ft 431 kts 13°
2026-04-26 17:34 57.82912 24.87933 34911 ft 432 kts 13°
2026-04-26 17:35 57.88612 24.91215 34897 ft 432 kts 13°
2026-04-26 17:35 57.94377 24.94551 34877 ft 433 kts 13°
2026-04-26 17:36 58.00127 24.97629 34864 ft 431 kts 10°
2026-04-26 17:36 58.06000 24.99706 34860 ft 430 kts
2026-04-26 17:37 58.11911 25.01229 34854 ft 430 kts
2026-04-26 17:37 58.17880 25.02721 34848 ft 432 kts
2026-04-26 17:38 58.26765 25.04948 34853 ft 432 kts
2026-04-26 17:38 58.32700 25.06448 34854 ft 432 kts
2026-04-26 17:39 58.38643 25.07957 34856 ft 433 kts
2026-04-26 17:39 58.44626 25.09454 34856 ft 432 kts
2026-04-26 17:40 58.49636 25.09962 34859 ft 431 kts 359°
2026-04-26 17:40 58.56654 25.10381 34860 ft 431 kts 359°
2026-04-26 17:41 58.62627 25.10747 34859 ft 432 kts 359°
2026-04-26 17:41 58.68619 25.11127 34856 ft 433 kts 359°
2026-04-26 17:42 58.74614 25.11515 34854 ft 433 kts 359°
2026-04-26 17:42 58.80552 25.11134 34766 ft 418 kts 351°
2026-04-26 17:43 58.83379 25.10336 34272 ft 417 kts 349°
2026-04-26 17:43 58.86255 25.09461 33494 ft 423 kts 349°
2026-04-26 17:43 58.89171 25.08563 32725 ft 426 kts 349°
2026-04-26 17:43 58.92083 25.07665 32034 ft 427 kts 349°
2026-04-26 17:44 58.94997 25.06768 31385 ft 427 kts 349°
2026-04-26 17:44 58.97913 25.05872 30735 ft 425 kts 349°
2026-04-26 17:44 59.00790 25.04990 30088 ft 424 kts 349°
2026-04-26 17:44 59.03699 25.04098 29452 ft 423 kts 349°
2026-04-26 17:45 59.06576 25.03216 28843 ft 422 kts 349°
2026-04-26 17:45 59.09464 25.02329 28222 ft 420 kts 349°
2026-04-26 17:45 59.12323 25.01451 27587 ft 418 kts 349°
2026-04-26 17:45 59.15195 25.00568 26872 ft 418 kts 349°
2026-04-26 17:46 59.18052 24.99687 26035 ft 420 kts 349°
2026-04-26 17:46 59.20928 24.98798 25182 ft 421 kts 349°
2026-04-26 17:46 59.23776 24.97918 24538 ft 416 kts 349°
2026-04-26 17:46 59.26620 24.97037 23853 ft 412 kts 349°
2026-04-26 17:47 59.29440 24.96161 23121 ft 410 kts 349°
2026-04-26 17:47 59.31276 24.95590 22635 ft 408 kts 349°
2026-04-26 17:47 59.34986 24.94435 21421 ft 401 kts 349°
2026-04-26 17:47 59.37681 24.93594 20331 ft 398 kts 349°
2026-04-26 17:48 59.40382 24.92749 19272 ft 393 kts 350°
2026-04-26 17:48 59.43063 24.91909 18231 ft 388 kts 350°
2026-04-26 17:48 59.45676 24.91089 17200 ft 384 kts 350°
2026-04-26 17:48 59.48303 24.90263 16155 ft 379 kts 350°
2026-04-26 17:49 59.50861 24.89457 15142 ft 373 kts 350°
2026-04-26 17:49 59.53375 24.88667 14144 ft 368 kts 350°
2026-04-26 17:49 59.55855 24.87892 13256 ft 363 kts 350°
2026-04-26 17:49 59.58333 24.87104 12438 ft 357 kts 350°
2026-04-26 17:50 59.60767 24.86334 11712 ft 354 kts 350°
2026-04-26 17:50 59.63143 24.85574 11155 ft 348 kts 350°
2026-04-26 17:50 59.65493 24.84833 10719 ft 338 kts 350°
2026-04-26 17:50 59.67791 24.84104 10280 ft 326 kts 350°
2026-04-26 17:51 59.69966 24.83416 10134 ft 308 kts 351°
2026-04-26 17:51 59.72021 24.82770 10028 ft 291 kts 350°
2026-04-26 17:51 59.73970 24.82150 9930 ft 276 kts 350°
2026-04-26 17:51 59.75799 24.81562 9866 ft 261 kts 350°
2026-04-26 17:52 59.77528 24.81009 9814 ft 246 kts 350°
2026-04-26 17:52 59.79198 24.80470 9782 ft 244 kts 349°
2026-04-26 17:52 59.80881 24.79923 9702 ft 244 kts 349°
2026-04-26 17:52 59.82534 24.79381 9351 ft 243 kts 350°
2026-04-26 17:53 59.84202 24.78849 8998 ft 241 kts 350°
2026-04-26 17:53 59.85836 24.78323 8651 ft 239 kts 350°
2026-04-26 17:53 59.87471 24.77797 8306 ft 237 kts 350°
2026-04-26 17:54 59.90678 24.76767 7616 ft 233 kts 350°
2026-04-26 17:54 59.92268 24.76253 7271 ft 230 kts 350°
2026-04-26 17:54 59.93833 24.75749 6931 ft 228 kts 350°
2026-04-26 17:54 59.95398 24.75247 6594 ft 227 kts 350°
2026-04-26 17:55 59.96949 24.74750 6263 ft 225 kts 350°
2026-04-26 17:55 59.98477 24.74259 5935 ft 224 kts 350°
2026-04-26 17:55 60.00014 24.73758 5609 ft 223 kts 350°
2026-04-26 17:55 60.01525 24.73261 5284 ft 221 kts 350°
2026-04-26 17:56 60.03048 24.72765 4951 ft 221 kts 350°
2026-04-26 17:56 60.06079 24.71818 4286 ft 222 kts 349°
2026-04-26 17:57 60.09120 24.70806 3619 ft 223 kts 349°
2026-04-26 17:57 60.10645 24.70294 3283 ft 224 kts 348°
2026-04-26 17:57 60.12147 24.69789 3220 ft 212 kts 349°
2026-04-26 17:57 60.13562 24.69298 3189 ft 201 kts 351°
2026-04-26 17:58 60.17446 24.68022 2834 ft 181 kts 352°
2026-04-26 17:59 60.19933 24.67473 2393 ft 180 kts 10°
2026-04-26 17:59 60.21032 24.68542 2346 ft 174 kts 31°
2026-04-26 17:59 60.21949 24.70110 2390 ft 175 kts 35°
2026-04-26 17:59 60.22841 24.71806 2423 ft 178 kts 40°
2026-04-26 18:00 60.23680 24.73584 2363 ft 170 kts 40°
2026-04-26 18:00 60.24443 24.75283 2264 ft 157 kts 39°
2026-04-26 18:00 60.25156 24.76838 2036 ft 148 kts 40°
2026-04-26 18:00 60.25824 24.78307 1851 ft 139 kts 42°
2026-04-26 18:01 60.26451 24.79722 1647 ft 133 kts 40°
2026-04-26 18:01 60.27072 24.81099 1467 ft 132 kts 39°
2026-04-26 18:01 60.27684 24.82448 1290 ft 131 kts 38°
2026-04-26 18:01 60.28302 24.83794 1095 ft 131 kts 39°
2026-04-26 18:02 60.28918 24.85165 902 ft 132 kts 39°
2026-04-26 18:02 60.29329 24.86069 806 ft 133 kts 39°
2026-04-26 18:02 60.30175 24.87931 570 ft 136 kts 40°
2026-04-26 18:02 60.30806 24.89331 374 ft 136 kts 39°
2026-04-26 18:03 60.31446 24.90730 204 ft 135 kts 40°
2026-04-26 18:03 60.32013 24.91968 190 ft 96 kts 46°
2026-04-26 18:03 60.32382 24.92778 190 ft 68 kts 47°
2026-04-26 18:03 60.32672 24.93418 190 ft 58 kts 46°
2026-04-26 18:04 60.32930 24.93990 190 ft 53 kts 49°
2026-04-26 18:04 60.33114 24.94463 190 ft 34 kts 79°
2026-04-26 18:04 60.33110 24.94928 190 ft 32 kts 93°
2026-04-26 18:05 60.33143 24.95634 190 ft 25 kts 137°
2026-04-26 18:05 60.33001 24.95849 191 ft 25 kts 150°
2026-04-26 18:05 60.32849 24.96027 191 ft 25 kts 150°
2026-04-26 18:05 60.32699 24.96202 191 ft 24 kts 150°
2026-04-26 18:06 60.32553 24.96374 191 ft 24 kts 150°
2026-04-26 18:06 60.32406 24.96545 191 ft 24 kts 150°
2026-04-26 18:06 60.32259 24.96717 191 ft 24 kts 150°
2026-04-26 18:06 60.32114 24.96884 191 ft 24 kts 150°
2026-04-26 18:07 60.31970 24.97044 191 ft 23 kts 153°
2026-04-26 18:07 60.31830 24.97187 191 ft 21 kts 153°
2026-04-26 18:07 60.31720 24.97301 191 ft 7 kts 157°
2026-04-26 18:07 60.31692 24.97273 191 ft 7 kts 233°
2026-04-26 18:08 60.31675 24.97215 191 ft 0 kts 242°